Location: Gleizolles
(44.4833°N, 6.7667°E)
Time: 16:40:17
(UTC+00:00)

Explorer 7 - Pass Details

Date: 16 June 2024
Orbit: 465 x 619 km, 50.3° (Epoch: 12 July)

Event Time Altitude Azimuth Distance (km) Brightness Sun altitude
Rises 14:17:39 0° 266° (W) 2,573 10.8 50.6°
Reaches altitude 10° 14:19:57 10° 273° (W) 1,670 10.1 50.2°
Maximum altitude 14:23:31 41° 345° (NNW) 701 7.8 49.6°
Drops below altitude 10° 14:27:01 10° 58° (ENE) 1,628 9.0 49.0°
Sets 14:29:14 0° 65° (ENE) 2,499 9.8 48.6°
